Home > Weather > Saint-Denis > Past weeks

Flag for Reunion (French) Weather for the Past 2 Weeks in Saint-Denis, Reunion (French)

Now
79 °F

Passing clouds.


Feels Like: 82 °F
Forecast: 77 / 88 °F
Wind: 3 mph from South

Location: Saint-Denis / Gillot

Current Time: Feb 13, 2016 at 12:57:03 AM

Latest Report: Feb 13, 2016 at 12:00 AM


Visibility: N/A

Pressure: 29.77 "Hg

Humidity: 84%

Dew point: 73 °F

Location of Saint-DenisLocation

Historic Weather in Saint-Denis — Graph

°F

Saint-Denis Temperature Yesterday

Maximum temperature yesterday: 88 °F (at 11:00 AM)
Minimum temperature yesterday: 77 °F (at 1:30 AM)
Average temperature yesterday: 83 °F

High & Low Weather Summary for the Past Weeks

 TemperatureHumidityPressure
High90 °F (Jan 30, 10:30 AM)94% (Feb 8, 11:30 PM)29.95 "Hg (Feb 8, 11:30 PM)
Low73 °F (Jan 30, 4:30 AM)43% (Jan 30, 10:30 AM)29.59 "Hg (Feb 10, 4:30 PM)
Average82 °F74%29.81 "Hg
* Reported Midnight between Jan 28 and Jan 29 — Midnight between Feb 12 and Feb 13, Saint-Denis, Weather by CustomWeather, © 2016

Note: Actual official high and low records may vary slightly from our data, if they occured in-between our weather recording intervals... More about our weather records

Advertising

Saint-Denis Weather History for the Previous 24 Hours

 ConditionsComfort  
Time TempWeatherWind HumidityBarometerVisibility
12:00 AM
Sat, Feb 13
79 °FPassing clouds.3 mph84%29.77 "HgN/A
11:30 PM
Fri, Feb 12
79 °FPassing clouds.3 mph84%29.80 "HgN/A
11:00 PM81 °FPassing clouds.5 mph79%29.80 "HgN/A
10:30 PM81 °FPassing clouds.6 mph79%29.80 "HgN/A
10:00 PM81 °FPassing clouds.6 mph79%29.80 "HgN/A
9:30 PM82 °FPartly cloudy.8 mph79%29.80 "HgN/A
9:00 PM82 °FPartly cloudy.7 mph79%29.80 "HgN/A
8:30 PM82 °FPassing clouds.8 mph79%29.77 "HgN/A
8:00 PM82 °FPassing clouds.7 mph79%29.77 "HgN/A
7:30 PM84 °FPassing clouds.6 mph74%29.77 "HgN/A
7:00 PM84 °FWarm.5 mph79%29.74 "HgN/A
6:30 PM86 °FWarm.7 mph70%29.74 "HgN/A
6:00 PM86 °FWarm.8 mph70%29.71 "HgN/A
5:30 PM86 °FPassing clouds.8 mph75%29.71 "HgN/A
5:00 PM88 °FPassing clouds.10 mph70%29.71 "HgN/A
4:30 PM88 °FScattered clouds.10 mph70%29.68 "HgN/A
4:00 PM88 °FScattered clouds.12 mph75%29.68 "HgN/A
3:30 PM88 °FScattered clouds.12 mph70%29.68 "HgN/A
3:00 PM88 °FScattered clouds.12 mph75%29.68 "HgN/A
2:30 PM88 °FScattered clouds.13 mph75%29.71 "HgN/A
2:00 PM88 °FScattered clouds.13 mph75%29.71 "HgN/A
1:30 PM88 °FPassing clouds.12 mph70%29.71 "HgN/A
1:00 PM88 °FPassing clouds.12 mph70%29.71 "HgN/A
12:30 PM88 °FPassing clouds.14 mph75%29.74 "HgN/A
12:00 PM88 °FPassing clouds.12 mph75%29.74 "HgN/A
11:30 AM88 °FPassing clouds.9 mph75%29.74 "HgN/A
11:00 AM88 °FPassing clouds.8 mph75%29.74 "HgN/A
10:30 AM86 °FPassing clouds.7 mph79%29.74 "HgN/A
10:00 AM86 °FPassing clouds.6 mph75%29.74 "HgN/A
9:30 AM86 °FPassing clouds.5 mph75%29.74 "HgN/A
9:00 AM84 °FPassing clouds.5 mph79%29.77 "HgN/A
8:30 AM84 °FScattered clouds.5 mph79%29.77 "HgN/A
8:00 AM84 °FScattered clouds.2 mph74%29.74 "HgN/A
7:30 AM81 °FScattered clouds.1 mph84%29.74 "HgN/A
7:00 AM79 °FScattered clouds.6 mph89%29.74 "HgN/A
6:30 AM77 °FScattered clouds.7 mph89%29.74 "HgN/A
6:00 AM77 °FPassing clouds.5 mph89%29.71 "HgN/A
5:00 AM77 °FPassing clouds.6 mph89%29.71 "HgN/A
4:30 AM77 °FClear.5 mph89%29.71 "HgN/A
4:00 AM77 °FWarm.3 mph89%29.71 "HgN/A
3:30 AM77 °FPassing clouds.3 mph89%29.68 "HgN/A
3:00 AM77 °FPassing clouds.3 mph89%29.68 "HgN/A
2:00 AM77 °FPassing clouds.3 mph89%29.71 "HgN/A
1:30 AM77 °FPassing clouds.3 mph89%29.71 "HgN/A
1:00 AM79 °FPassing clouds.No wind89%29.71 "HgN/A
12:30 AM79 °FPassing clouds.6 mph89%29.71 "HgN/A
12:00 AM79 °FClear.5 mph89%29.71 "HgN/A
Weather by CustomWeather, © 2016

See weather overviewHow to use our weather pages